Weather History for Cheyenne, WY

Change the Weather History Date:

Sunday, September 29, 2013

  Actual Average Record
Temperature  
Mean Temperature 57 °F 52 °F  
Max Temperature 70 °F 65 °F 85 °F (1994)
Min Temperature 43 °F 39 °F 14 °F (1985)
Degree Days  
Heating Degree Days 8 13  
Month to date heating degree days 165 212  
Since 1 July heating degree days 180 268  
Cooling Degree Days 0 0  
Month to date cooling degree days 67 21  
Year to date cooling degree days 520 347  
Growing Degree Days 8 (Base 50)    
Moisture  
Dew Point 27 °F    
Average Humidity 35    
Maximum Humidity 53    
Minimum Humidity 17    
Precipitation  
Precipitation 0.00 in 0.04 in 0.47 in (1995)
Month to date precipitation 6.95 1.44  
Year to date precipitation 15.38 13.89  
Snow  
Snow 0.00 in 0.10 in 2.30 in (1959)
Month to date snowfall 0.0 1.2  
Since 1 July snowfall 0.0 1.2  
Snow Depth 0.00 in    
Sea Level Pressure  
Sea Level Pressure 29.87 in    
Wind  
Wind Speed 13 mph (SW)    
Max Wind Speed 31 mph    
Max Gust Speed 40 mph    
Visibility 10 miles    
Events      
T = Trace of Precipitation, MM = Missing Value Source: NWS Daily Summary

Daily Weather History Graph

Daily Weather History Graph

Search for Another Location

Airport:

Trip Planner

Search our weather history database for the weather conditions in past years. The results will help you decide how hot, cold, wet, or windy it might be!

Date:

Astronomy

Sep. 29, 2013 Rise Set
Actual Time 6:54 AM MDT 6:43 PM MDT
Civil Twilight 6:26 AM MDT 7:11 PM MDT
Nautical Twilight 5:54 AM MDT 7:43 PM MDT
Astronomical Twilight 5:22 AM MDT 8:15 PM MDT
Moon 1:35 AM MDT (9/29) 3:43 PM MDT (9/29)
Length of Visible Light 12h 44m
Length of Day
11h 49m
Waning Crescent, 26% of the Moon is Illuminated
Sep 29
Waning Crescent
Oct 4
New
Oct 11
First Quarter
Oct 18
Full
Oct 26
Last Quarter

Hourly Weather History & Observations

Time (MDT) Temp. Windchill Dew Point Humidity Pressure Visibility Wind Dir Wind Speed Gust Speed Precip Events Conditions
12:53 AM 46.0 °F 43.9 °F 28.9 °F 51% 30.01 in 10.0 mi WNW 4.6 mph - N/A   Clear
1:53 AM 44.1 °F 39.0 °F 28.9 °F 55% 30.00 in 10.0 mi SW 9.2 mph - N/A   Clear
2:53 AM 48.0 °F - 26.1 °F 42% 29.96 in 10.0 mi SW 10.4 mph - N/A   Clear
3:53 AM 48.9 °F - 25.0 °F 39% 29.95 in 10.0 mi North - - N/A   Clear
4:53 AM 48.0 °F - 25.0 °F 41% 29.94 in 10.0 mi SSW 10.4 mph - N/A   Clear
5:53 AM 48.9 °F - 23.0 °F 36% 29.94 in 10.0 mi WSW 6.9 mph - N/A   Clear
6:53 AM 48.9 °F - 21.0 °F 33% 29.96 in 10.0 mi SW 9.2 mph - N/A   Clear
7:53 AM 53.1 °F - 21.9 °F 30% 29.94 in 10.0 mi WSW 25.3 mph 31.1 mph N/A   Clear
8:53 AM 54.0 °F - 23.0 °F 30% 29.95 in 10.0 mi WSW 17.3 mph 25.3 mph N/A   Clear
9:53 AM 59.0 °F - 24.1 °F 26% 29.92 in 10.0 mi WSW 19.6 mph 34.5 mph N/A   Clear
10:53 AM 64.0 °F - 24.1 °F 22% 29.89 in 10.0 mi WSW 17.3 mph 28.8 mph N/A   Clear
11:53 AM 63.0 °F - 24.1 °F 23% 29.87 in 10.0 mi WSW 19.6 mph 29.9 mph N/A   Clear
12:53 PM 68.0 °F - 23.0 °F 18% 29.85 in 10.0 mi West 21.9 mph 31.1 mph N/A   Clear
1:53 PM 70.0 °F - 23.0 °F 17% 29.82 in 10.0 mi WSW 23.0 mph 31.1 mph N/A   Clear
2:53 PM 70.0 °F - 23.0 °F 17% 29.78 in 10.0 mi WSW 24.2 mph 34.5 mph N/A   Clear
3:53 PM 66.0 °F - 26.1 °F 22% 29.78 in 10.0 mi West 10.4 mph 21.9 mph N/A   Clear
4:25 PM 68.0 °F - 30.2 °F 24% 29.98 in 10.0 mi SSW 16.1 mph - N/A   Clear
4:53 PM 66.9 °F - 30.0 °F 25% 29.79 in 10.0 mi South 11.5 mph - N/A   Clear
5:53 PM 63.0 °F - 33.1 °F 33% 29.79 in 10.0 mi SSW 12.7 mph - N/A   Clear
6:53 PM 57.9 °F - 34.0 °F 41% 29.82 in 10.0 mi South 9.2 mph - N/A   Clear
7:53 PM 53.1 °F - 36.0 °F 52% 29.83 in 10.0 mi SSW 8.1 mph - N/A   Clear
8:53 PM 52.0 °F - 33.1 °F 49% 29.83 in 10.0 mi SW 9.2 mph - N/A   Clear
9:53 PM 57.0 °F - 26.1 °F 30% 29.80 in 10.0 mi WSW 9.2 mph - N/A   Clear
10:53 PM 59.0 °F - 23.0 °F 25% 29.79 in 10.0 mi Calm Calm - N/A   Clear
11:53 PM 54.0 °F - 27.0 °F 35% 29.79 in 10.0 mi West 10.4 mph - N/A   Clear